Location: Alafon
(8.4500°N, 4.2333°E)
Time: 02:25:11
(UTC+00:00)

Vanguard 2 - Pass Details

Date: 09 August 2021
Orbit: 552 x 2937 km, 32.9° (Epoch: 21 September)

Event Time Altitude Azimuth Distance (km) Brightness Sun altitude
Rises 00:06:39 0° 259° (W) 4,673 - -65.3°
Reaches altitude 10° 00:10:56 10° 270° (W) 3,242 - -65.1°
Maximum altitude 00:17:00 26° 324° (NW) 1,749 - -64.7°
Drops below altitude 10° 00:21:18 10° 20° (NNE) 2,228 - -64.4°
Sets 00:23:41 0° 35° (NE) 2,964 - -64.2°
